Weather in Vigan

Philippines     17°34′26″N   120°23′06″E
temp.,
°C
wind,
m/s
gust,
m/s
humid.,
%
clouds,
%
prec.,
mm/h
press.,
hPa
HPBL,
m
12 april, mon
mon1223:00+24ene337210 0.0 101489
02:00+23ene227526 0.0 101348
05:00+22ene2273100 0.0 101448
08:00+28ene2251100 0.0 1015404
11:00+33w434496 0.0 10141640
14:00+31wnw6555100 0.0 10111157
17:00+29wnw546418 0.0 10111049
20:00+25n127644 0.0 101384
13 april, tue
tue1323:00+24ene228058 0.0 101327
02:00+23ese117966 0.0 101122
05:00+22e227548 0.0 101123
08:00+29e115151 0.0 1012451
11:00+34wsw4341100 0.0 10111627
14:00+32w5454100 0.0 10091095
17:00+29w336299 0.0 1009833
20:00+26wsw017693 0.2 101073
14 april, wed
wed1423:00+25ese1181100 0.0 101119
02:00+25e1181100 0.1 101017
05:00+24e1180100 0.1 101024
08:00+29e115997 0.1 1012463
11:00+33wsw5349100 0.1 10111527
14:00+32w545599 0.4 10091138
17:00+29wnw2264100 2.5 1009802
20:00+25n0186100 6.1 101028
15 april, thu
thu1523:00+25e1183100 0.2 101024
02:00+25e228260 0.2 100934
05:00+24e218163 0.1 101032
08:00+28e1166100 0.1 1011365
11:00+33wsw5350100 0.0 10101585
14:00+32wsw6555100 0.1 10081125
17:00+30w335973 0.0 1009975
20:00+27w11769 0.1 101141
16 april, fri
fri1623:00+26e11813 0.1 101118
02:00+25e11835 0.5 101016
05:00+24e118214 0.1 101121
08:00+29ese11585 0.1 1012527
11:00+33wsw534735 0.0 10111561
14:00+32w655566 0.0 10101103
17:00+29w336450 0.2 1010960
20:00+26wnw018220 2.1 101118